Regional Weather Roundup
Issued by NWS Boston, MA

Current Version | Previous Version | Text Only | Print | Product List | Glossary Off
Versions: 1 2 3 4 5 6 7 8 9 10 11 12 13 14 15 16 17 18 19 20 21 22 23 24 25 26 27
000 ASUS41 KBOX 161110 RWRBOX REGIONAL WEATHER ROUNDUP NATIONAL WEATHER SERVICE TAUNTON MA 700 AM EDT WED AUG 16 2017 NOTE: "FAIR" INDICATES FEW OR NO CLOUDS BELOW 12,000 FEET WITH NO SIGNIFICANT WEATHER AND/OR OBSTRUCTIONS TO VISIBILITY. MAZALL-161200- EASTERN MASSACHUSETTS CITY SKY/WX TMP DP RH WIND PRES REMARKS BOSTON PTSUNNY 70 66 87 W7 29.90S BEVERLY SUNNY 67 65 93 CALM 29.90R LAWRENCE SUNNY 69 65 86 W3 29.93R BEDFORD SUNNY 65 62 90 CALM 29.90R FOG BLUE HILL N/A 65 64 97 W10 29.91S NORWOOD SUNNY 68 67 96 CALM 29.90S FOG MARSHFIELD CLOUDY 68 68 100 VRB3 29.90S FOG PLYMOUTH MOSUNNY 66 64 93 W6 29.91S FOG TAUNTON PTSUNNY 67 65 93 CALM 29.91R FOG NEW BEDFORD SUNNY 68 66 93 W3 29.90R $$ MAZALL-161200- CAPE COD AND THE ISLANDS CITY SKY/WX TMP DP RH WIND PRES REMARKS FALMOUTH SUNNY 68 68 100 NW8 29.91R HYANNIS SUNNY 69 67 93 NW5 29.88S CHATHAM MOSUNNY 69 68 96 VRB5 29.89F PROVINCETOWN SUNNY 68 66 93 W9 29.90S NANTUCKET CLOUDY 67 67 100 W6 29.90S FOG MARTHAS VNYRD SUNNY 69 67 93 NW9 29.89S $$ MAZALL-161200- CENTRAL AND WESTERN MASSACHUSETTS CITY SKY/WX TMP DP RH WIND PRES REMARKS WORCESTER CLOUDY 65 62 90 W7 29.96R FITCHBURG MOSUNNY 69 65 86 W5 29.94R ORANGE CLOUDY 64 64 100 NW6 29.95R FOG SPRINGFIELD PTSUNNY 65 64 96 CALM 29.94R FOG WESTFIELD PTCLDY 64 64 100 N7 29.95S NORTH ADAMS MOCLDY 62 61 96 CALM 29.97F FOG PITTSFIELD MOCLDY 63 61 93 W9 29.98S $$ RIZALL-161200- RHODE ISLAND CITY SKY/WX TMP DP RH WIND PRES REMARKS PROVIDENCE PTSUNNY 68 68 100 W7 29.92R FOG NEWPORT MOSUNNY 67 67 100 NW5 29.91S FOG BLOCK ISLAND SUNNY 69 67 93 NW7 29.92S WESTERLY SUNNY 69 67 93 N5 29.92S FOG $$ CTZALL-161200- CONNECTICUT CITY SKY/WX TMP DP RH WIND PRES REMARKS BRADLEY INTL PTCLDY 66 65 96 N5 29.94S HARTFORD CLEAR 68 67 96 CALM 29.94R BRIDGEPORT CLEAR 71 69 93 NW3 29.94R FOG DANBURY CLEAR 68 66 93 CALM 29.97S GROTON SUNNY 68 66 93 CALM 29.92S NEW HAVEN CLEAR 71 68 90 NW6 29.94R FOG CHESTER NOT AVBL MERIDEN CLEAR 66 65 96 CALM 29.95R WILLIMANTIC PTSUNNY 67 67 100 CALM 29.94R FOG OXFORD CLEAR 66 65 96 NW3 29.97S $$ MEZ002-015-021-024-NHZ003-005-008-011-012-014-VTZ005-008-161200- NORTHERN NEW ENGLAND CITY SKY/WX TMP DP RH WIND PRES REMARKS PORTLAND ME MOSUNNY 67 63 87 W5 29.89R BANGOR ME MOSUNNY 66 63 90 CALM 29.86R FOG CONCORD NH SUNNY 64 61 90 NW5 29.93R MANCHESTER NH MOSUNNY 67 62 84 NW5 29.91R NASHUA NH SUNNY 64 63 96 NW6 29.92R PORTSMOUTH NH MOSUNNY 66 62 86 W7 29.89R JAFFREY NH MOSUNNY 64 64 100 CALM 29.96R FOG KEENE NH N/A N/A N/A N/A MISG N/A BURLINGTON VT CLOUDY 65 61 87 N12 29.99R MT. WASHINGTON DRZL/FOG 45 45 100 NW43G53 N/A VSB 0 $$ NYZ052-076-161200- EASTERN NEW YORK CITY SKY/WX TMP DP RH WIND PRES REMARKS ALBANY PTCLDY 63 61 93 CALM 29.97S NEW YORK CITY PTCLDY 71 69 93 NW7 29.94R $$ ANZALL-161200- MARINE OBSERVATIONS STATION/POSITION TIME TEMP WIND PRES VSBY WAVE AIR SEA DIR/SP/G HT/PER (UTC) (F) (DEG/KT/KT) (MB) (MI) (FT/S) BOSTON BUOY 1050 67 67 240/ 10/ 10 1012.0R 1/ 7 BUZZARDS BAY 1000 67 290/ 10/ 10 1012.7F NANTUCKET SOUND 1050 70 71 310/ 10/ 14 1012.0R 1/ 3 MASS BAY-STELLWA 1004 67 67 240/ 12/ 14 1011.0R 2/ 6 ISLE OF SHOALS 1000 66 270/ 8/ 8 1011.3R S OF BLOCK IS 1043 69 N/A 7/12 $$ ......................KEY......................... SKY/WX - SKY CONDITION/PRESENT WEATHER TMP - TEMPERATURE IN FAHRENHEIT DWPT - DEWPOINT IN FAHRENHEIT RH - RELATIVE HUMIDITY IN PERCENT WIND - DIRECTION AND SPEED IN MPH PRES - MEAN SEA LEVEL PRESSURE IN INCHES OF HG WCI - WIND CHILL INDEX VSB - VISIBILITY IN MILES HX - HEAT INDEX TC - TEMPERATURE IN CELSIUS VRB - VARIABLE WIND DIRECTION N/A - NOT AVAILABLE

USA.gov is the U.S. government's official web portal to all federal, state and local government web resources and services.